Regional Weather Roundup
Issued by NWS

Home | Current Version | Previous Version | Text Only | Print | Product List | Glossary Off
Versions: 1 2 3 4 5 6 7 8 9 10 11 12 13 14 15 16 17 18 19 20 21 22 23 24 25 26 27 28 29 30 31 32 33 34 35 36 37 38 39 40 41 42 43 44 45 46 47 48 49 50

000
ASUS43 KMPX 172310
RWRMN
WEATHER ROUNDUP FOR MINNESOTA
NATIONAL WEATHER SERVICE TWIN CITIES/CHANHASSEN MN
600 PM CDT TUE OCT 17 2017


NOTE: "FAIR" INDICATES FEW OR NO CLOUDS BELOW 12,000 FEET WITH NO
SIGNIFICANT WEATHER AND/OR OBSTRUCTIONS TO VISIBILITY. N/A MEANS
CURRENT SKY AND/OR WEATHER CONDITIONS ARE NOT AVAILABLE.

MNZ060>063-068>070-180000-
   Twin Cities Metro

CITY           SKY/WX    TMP DP  RH WIND       PRES   REMARKS
TWIN CITIES    PTCLDY    72  41  32 S5        29.92F
ST PAUL        CLEAR     68  47  46 S3        29.93F
CRYSTAL        CLEAR     66  42  41 S6        29.91F
BLAINE         PTCLDY    68  46  45 S6        29.92F
LAKEVILLE      CLEAR     63  43  48 CALM      29.93F HAZE
EDEN PRAIRIE   CLEAR     69  41  36 S6        29.91F
SOUTH ST PAUL  CLEAR     71  40  33 CALM      29.93S
LAKE ELMO      FAIR      66  45  45 SW3       29.94S
$$
MNZ001>005-007-008-013>017-022>024-027-028-180000-
   Northwest Minnesota

CITY           SKY/WX    TMP DP  RH WIND       PRES   REMARKS
BEMIDJI        CLEAR     66  38  35 S12       29.78F
HALLOCK        CLEAR     73  28  19 SW13      29.63F
ROSEAU         CLEAR     70  43  37 S9        29.67F
WARROAD        CLOUDY    68  41  37 S8        29.68F
THIEF RVR FALL CLEAR     69  39  33 S15       29.71F
CROOKSTON      CLEAR     73  39  29 S16       29.69F
FOSSTON        CLEAR     68  37  32 S17       29.75F
DETROIT LAKES  CLEAR     68  41  37 S9        29.81S
MOORHEAD       CLEAR     72  39  30 S10       29.77F
PARK RAPIDS    CLEAR     65  41  41 S9        29.81F
MAHNOMEN       FAIR      67  43  41 S13       29.75F
$$
MNZ006-009>011-018-025>026-180000-
   North Central Minnesota

CITY           SKY/WX    TMP DP  RH WIND       PRES   REMARKS
BAUDETTE       CLEAR     67  37  33 S12       29.71F
FLAG ISLAND    CLOUDY    55  46  71 S12       29.66S
INTL FALLS     CLEAR     65  37  35 VRB5      29.75F
WASKISH        PTCLDY    68  37  32 S6        29.75S
BIG FORK       PTCLDY    64  39  39 S6        29.79F
LONGVILLE      CLEAR     66  36  32 S8        29.83F
GRAND RAPIDS   CLEAR     65  39  38 S8        29.85F
CRANE LAKE     CLEAR     63  36  36 S3        29.82S
ORR            CLEAR     64  30  27 S5        29.79F
COOK           CLEAR     64  36  34 S5        29.83F
WALKER         FAIR      67  38  34 S7        29.81S
$$
MNZ012-019>021-037-180000-
   Northeast Minnesota

CITY           SKY/WX    TMP DP  RH WIND       PRES   REMARKS
DULUTH         CLEAR     62  41  46 SW7       29.88F
ELY            CLEAR     64  34  32 SW5       29.85S
HIBBING        CLEAR     64  36  35 VRB3      29.84F
EVELETH        CLEAR     63  12  13 SW7       29.86F
DULUTH HARBOR  CLEAR     66  43  42 SW7       29.87F
TWO HARBORS    CLEAR     64  45  48 S5        29.86S
GRAND MARAIS     N/A     53  48  83 CALM      29.88F
G MARAIS ARPRT CLEAR     55  36  47 S6        29.90F
$$
MNZ029>031-032-039>041-046>048-054>057-064-180000-
   West Central Minnesota

CITY           SKY/WX    TMP DP  RH WIND       PRES   REMARKS
FERGUS FALLS   CLEAR     70  41  35 SW8       29.80F
WHEATON        CLEAR     73  36  25 S8        29.83F
MORRIS         CLEAR     70  46  43 S7        29.84F
ALEXANDRIA     CLEAR     68  42  38 S8        29.87F
ELBOW LAKE     FAIR      68  43  41 S8        29.83F
WADENA         CLEAR     66  43  42 S8        29.83F
GLENWOOD       CLEAR     68  41  37 S7        29.87F
APPLETON       CLEAR     73  34  23 SW7       29.85F
BENSON         CLEAR     72  39  30 SW6       29.87F
ORTONVILLE     CLEAR     73  39  29 NW6       29.84F
MADISON        CLEAR     75  37  25 SW7       29.86F
WILLMAR        FAIR      72  39  30 CALM      29.90S
$$
MNZ033>034-036-042>043-049>051-058-059-180000-
   Central Minnesota

CITY           SKY/WX    TMP DP  RH WIND       PRES   REMARKS
ST CLOUD       CLEAR     67  42  40 S7        29.89F
SAUK CENTRE    FAIR      66  44  44 S6        29.88F
PAYNESVILLE    CLEAR     71  40  32 CALM      29.89F
AITKIN         CLEAR     63  37  39 S5        29.85F
PINE RIVER     CLEAR     64  39  39 S5        29.87F
BRAINERD       CLEAR     64  39  39 S8        29.86F
STAPLES        CLEAR     64  37  36 S7        29.85F
LONG PRAIRIE   FAIR      64  41  42 SE6       29.88F
LITTLE FALLS   CLEAR     66  30  26 S5        29.88F
LITCHFIELD     CLEAR     70  43  37 CALM      29.90F
BUFFALO        CLEAR     70  37  29 CALM      29.92F
MAPLE LAKE     CLEAR     71  41  34 CALM      29.91F
HUTCHINSON     CLEAR     73  40  30 CALM      29.92S
$$
MNZ037-044-045-052-053-180000-
   East Central Minnesota

CITY           SKY/WX    TMP DP  RH WIND       PRES   REMARKS
PRINCETON      CLEAR     70  43  37 S5        29.90F
MORA           CLEAR     64  43  45 S5        29.92R
CAMBRIDGE      CLEAR     70  48  46 S6        29.91S
RUSH CITY      PTCLDY    67  41  39 S3        29.91S
MOOSE LAKE     CLEAR     64  37  36 S3        29.87S
HINCKLEY       FAIR      66  43  42 S5        29.90S
CLOQUET        CLEAR     64  36  34 S3        29.88S
MCGREGOR       CLEAR     64  41  42 S7        29.87F
$$
MNZ071>073-080-081-089-090-097-098-180000-
   Southwest Minnesota

CITY           SKY/WX    TMP DP  RH WIND       PRES   REMARKS
MONTEVIDEO     CLEAR     73  37  27 SW5       29.88F
GRANITE FALLS  CLEAR     72  42  33 S6        29.90S
CANBY          CLEAR     74  37  25 SW6       29.88F
MARSHALL       CLEAR     74  39  28 SW7       29.89F
REDWOOD FALLS  CLEAR     73  37  27 SW5       29.89F
OLIVIA         CLEAR     72  39  30 S3        29.89S
PIPESTONE      CLEAR     72  41  33 SW7       29.93F
WORTHINGTON    CLEAR     71  39  31 S5        29.95F
JACKSON        CLEAR     72  36  26 SW5       29.96S
TRACY          CLEAR     72  42  34 S5        29.91F
SLAYTON        CLEAR    N/A N/A N/A S6        29.94F
$$
MNZ065>067-074>077-082>085-091>093-180000-
   South Central Minnesota

CITY           SKY/WX    TMP DP  RH WIND       PRES   REMARKS
MANKATO        CLEAR     72  38  29 SW6       29.93S
NEW ULM        CLEAR     72  36  26 SW5       29.92S
ST JAMES       CLEAR     72  36  26 S3        29.94S
FAIRMONT       CLEAR     72  40  31 SW7       29.95S
GLENCOE        CLEAR     73  40  30 CALM      29.91F
FARIBAULT      CLEAR     70  41  35 CALM      29.95R
OWATONNA       CLEAR     70  45  40 S9        29.95S
WASECA         CLEAR     70  41  35 S6        29.96S
ALBERT LEA     CLEAR     72  45  37 S6        29.97S
$$
MNZ078>079-086>088-094>096-180000-
   Southeast Minnesota

CITY           SKY/WX    TMP DP  RH WIND       PRES   REMARKS
ROCHESTER      CLEAR     65  46  50 S10       29.98S
RED WING       CLEAR     70  45  40 CALM      29.93S
STANTON        CLEAR     71  39  31 CALM      29.93S
DODGE CENTER   CLEAR     68  41  37 S8        29.97S
WINONA         CLEAR     70  45  40 S3        29.97S
AUSTIN         CLEAR     66  45  45 S5        29.97F
PRESTON        CLEAR     66  42  42 S8        29.99F
$$
ABBREVIATIONS USED IN REMARKS
   TC - TEMPERATURES IN CELSIUS
  WCI - WIND CHILL INDEX
   HX - HEAT INDEX
  VSB - VISIBILITY
$$




USA.gov is the U.S. government's official web portal to all federal, state and local government web resources and services.